Time,TemperatureF,DewpointF,PressureIn,WindDirection,WindDirectionDegrees,WindSpeedMPH,WindSpeedGustMPH,Humidity,HourlyPrecipIn,Conditions,Clouds,dailyrainin,SoftwareType,DateUTC
2013-07-10 00:00:00,72.0,69.9,30.10,SW,233,0.0,0.0,93,0.00,,,0.00,Wunderground v.1.15,2013-07-10 04:00:00,
2013-07-10 00:02:00,71.9,69.8,30.10,N/A,-737280,0.0,-999.0,93,0.00,,,0.96,Wunderground v.1.15,2013-07-10 04:02:00,
2013-07-10 00:05:00,71.9,69.8,30.10,SW,233,0.0,0.0,93,0.00,,,0.00,Wunderground v.1.15,2013-07-10 04:05:00,
2013-07-10 00:07:00,71.9,69.8,30.10,N/A,-737280,0.0,-999.0,93,0.00,,,0.96,Wunderground v.1.15,2013-07-10 04:07:00,
2013-07-10 00:11:00,71.8,69.7,30.10,SW,219,0.0,0.0,93,0.00,,,0.00,Wunderground v.1.15,2013-07-10 04:11:00,
2013-07-10 00:12:00,71.9,69.8,30.10,N/A,-737280,0.0,-999.0,93,0.00,,,0.96,Wunderground v.1.15,2013-07-10 04:12:00,
2013-07-10 00:15:00,71.8,69.7,30.10,SW,219,0.0,0.0,93,0.00,,,0.00,Wunderground v.1.15,2013-07-10 04:15:00,
2013-07-10 00:17:00,71.8,69.7,30.10,SW,225,0.0,-999.0,93,0.00,,,0.96,Wunderground v.1.15,2013-07-10 04:17:00,
2013-07-10 00:20:00,71.8,69.7,30.10,SW,219,0.0,0.0,93,0.00,,,0.00,Wunderground v.1.15,2013-07-10 04:20:00,
2013-07-10 00:22:00,71.8,69.7,30.10,N/A,-737280,0.0,-999.0,93,0.00,,,0.96,Wunderground v.1.15,2013-07-10 04:22:00,
2013-07-10 00:27:00,71.8,70.0,30.10,N/A,-737280,0.0,-999.0,94,0.00,,,0.96,Wunderground v.1.15,2013-07-10 04:27:00,
2013-07-10 00:30:00,71.8,70.0,30.10,SW,219,0.0,0.0,94,0.00,,,0.00,Wunderground v.1.15,2013-07-10 04:30:00,
2013-07-10 00:32:00,71.8,70.0,30.10,N/A,-737280,0.0,-999.0,94,0.00,,,0.96,Wunderground v.1.15,2013-07-10 04:32:00,
2013-07-10 00:35:00,71.8,70.0,30.10,SW,219,0.0,0.0,94,0.00,,,0.00,Wunderground v.1.15,2013-07-10 04:35:00,
2013-07-10 00:37:00,71.8,70.0,30.10,N/A,-737280,0.0,-999.0,94,0.00,,,0.96,Wunderground v.1.15,2013-07-10 04:37:00,
2013-07-10 00:42:00,71.8,70.0,30.10,N/A,-737280,0.0,-999.0,94,0.00,,,0.96,Wunderground v.1.15,2013-07-10 04:42:00,
2013-07-10 00:45:00,71.9,70.1,30.09,SW,219,0.0,0.0,94,0.00,,,0.00,Wunderground v.1.15,2013-07-10 04:45:00,
2013-07-10 00:47:00,71.9,70.1,30.09,N/A,-737280,0.0,-999.0,94,0.00,,,0.96,Wunderground v.1.15,2013-07-10 04:47:00,
2013-07-10 00:51:00,71.9,70.4,30.09,SW,219,0.0,0.0,95,0.00,,,0.00,Wunderground v.1.15,2013-07-10 04:51:00,
2013-07-10 00:52:00,71.9,70.1,30.09,N/A,-737280,0.0,-999.0,94,0.00,,,0.96,Wunderground v.1.15,2013-07-10 04:52:00,
2013-07-10 00:55:00,72.0,70.5,30.09,WSW,241,0.0,0.0,95,0.00,,,0.00,Wunderground v.1.15,2013-07-10 04:55:00,
2013-07-10 00:57:00,72.0,70.5,30.09,WSW,248,0.0,-999.0,95,0.00,,,0.96,Wunderground v.1.15,2013-07-10 04:57:00,
2013-07-10 01:01:00,72.0,70.5,30.09,WSW,241,0.0,0.0,95,0.00,,,0.00,Wunderground v.1.15,2013-07-10 05:01:00,
2013-07-10 01:02:00,72.0,70.5,30.09,N/A,-737280,0.0,-999.0,95,0.00,,,0.96,Wunderground v.1.15,2013-07-10 05:02:00,
2013-07-10 01:07:00,72.1,70.6,30.09,WSW,248,0.0,-999.0,95,0.00,,,0.96,Wunderground v.1.15,2013-07-10 05:07:00,
2013-07-10 01:10:00,72.1,70.6,30.09,WSW,241,0.0,0.0,95,0.00,,,0.00,Wunderground v.1.15,2013-07-10 05:10:00,
2013-07-10 01:12:00,72.1,70.6,30.09,N/A,-737280,0.0,-999.0,95,0.00,,,0.96,Wunderground v.1.15,2013-07-10 05:12:00,
2013-07-10 01:15:00,72.1,70.6,30.09,WSW,241,0.0,0.0,95,0.00,,,0.00,Wunderground v.1.15,2013-07-10 05:15:00,
2013-07-10 01:17:00,72.1,70.6,30.09,N/A,-737280,0.0,-999.0,95,0.00,,,0.96,Wunderground v.1.15,2013-07-10 05:17:00,
2013-07-10 01:20:00,72.1,70.6,30.09,WSW,241,0.0,0.0,95,0.00,,,0.00,Wunderground v.1.15,2013-07-10 05:20:00,
2013-07-10 01:22:00,72.1,70.6,30.09,N/A,-737280,0.0,-999.0,95,0.00,,,0.96,Wunderground v.1.15,2013-07-10 05:22:00,
2013-07-10 01:25:00,72.1,70.6,30.09,WSW,241,0.0,0.0,95,0.00,,,0.00,Wunderground v.1.15,2013-07-10 05:25:00,
2013-07-10 01:27:00,72.1,70.6,30.09,N/A,-737280,0.0,-999.0,95,0.00,,,0.96,Wunderground v.1.15,2013-07-10 05:27:00,
2013-07-10 01:30:00,72.1,70.6,30.09,WSW,241,0.0,0.0,95,0.00,,,0.00,Wunderground v.1.15,2013-07-10 05:30:00,
2013-07-10 01:32:00,72.1,70.6,30.09,N/A,-737280,0.0,-999.0,95,0.00,,,0.96,Wunderground v.1.15,2013-07-10 05:32:00,
2013-07-10 01:35:00,72.1,70.6,30.09,WSW,241,0.0,0.0,95,0.00,,,0.00,Wunderground v.1.15,2013-07-10 05:35:00,
2013-07-10 01:37:00,72.1,70.6,30.09,N/A,-737280,0.0,-999.0,95,0.00,,,0.96,Wunderground v.1.15,2013-07-10 05:37:00,
2013-07-10 01:40:00,72.1,70.6,30.08,WSW,241,0.0,0.0,95,0.00,,,0.00,Wunderground v.1.15,2013-07-10 05:40:00,
2013-07-10 01:42:00,72.1,70.6,30.08,N/A,-737280,0.0,-999.0,95,0.00,,,0.96,Wunderground v.1.15,2013-07-10 05:42:00,
2013-07-10 01:45:00,72.1,70.6,30.08,WSW,241,0.0,0.0,95,0.00,,,0.00,Wunderground v.1.15,2013-07-10 05:45:00,
2013-07-10 01:47:00,72.1,70.6,30.08,N/A,-737280,0.0,-999.0,95,0.00,,,0.96,Wunderground v.1.15,2013-07-10 05:47:00,
2013-07-10 01:50:00,72.1,70.6,30.08,WSW,241,0.0,0.0,95,0.00,,,0.00,Wunderground v.1.15,2013-07-10 05:50:00,
2013-07-10 01:52:00,72.1,70.6,30.08,N/A,-737280,0.0,-999.0,95,0.00,,,0.96,Wunderground v.1.15,2013-07-10 05:52:00,
2013-07-10 01:57:00,72.1,70.6,30.08,SSE,158,0.0,-999.0,95,0.00,,,0.96,Wunderground v.1.15,2013-07-10 05:57:00,
2013-07-10 02:00:00,72.2,70.7,30.08,SSE,156,0.0,0.0,95,0.00,,,0.00,Wunderground v.1.15,2013-07-10 06:00:00,
2013-07-10 02:02:00,72.2,70.7,30.08,SSE,158,0.0,-999.0,95,0.00,,,0.96,Wunderground v.1.15,2013-07-10 06:02:00,
2013-07-10 02:05:00,72.3,70.8,30.08,ESE,121,0.0,0.0,95,0.00,,,0.00,Wunderground v.1.15,2013-07-10 06:05:00,
2013-07-10 02:07:00,72.2,70.7,30.08,N/A,-737280,0.0,-999.0,95,0.00,,,0.96,Wunderground v.1.15,2013-07-10 06:07:00,
2013-07-10 02:10:00,72.2,70.7,30.08,ESE,121,0.0,0.0,95,0.00,,,0.00,Wunderground v.1.15,2013-07-10 06:10:00,
2013-07-10 02:12:00,72.2,70.7,30.08,N/A,-737280,0.0,-999.0,95,0.00,,,0.96,Wunderground v.1.15,2013-07-10 06:12:00,
2013-07-10 02:15:00,72.2,70.7,30.08,ESE,121,0.0,0.0,95,0.00,,,0.00,Wunderground v.1.15,2013-07-10 06:15:00,
2013-07-10 02:17:00,72.2,70.7,30.08,N/A,-737280,0.0,-999.0,95,0.00,,,0.96,Wunderground v.1.15,2013-07-10 06:17:00,
2013-07-10 02:20:00,72.2,70.7,30.08,ESE,121,0.0,0.0,95,0.00,,,0.00,Wunderground v.1.15,2013-07-10 06:20:00,
2013-07-10 02:22:00,72.2,70.7,30.08,N/A,-737280,0.0,-999.0,95,0.00,,,0.96,Wunderground v.1.15,2013-07-10 06:22:00,
2013-07-10 02:25:00,72.1,70.6,30.07,SE,126,0.0,0.0,95,0.00,,,0.00,Wunderground v.1.15,2013-07-10 06:25:00,
2013-07-10 02:27:00,72.2,70.7,30.07,N/A,-737280,0.0,-999.0,95,0.00,,,0.96,Wunderground v.1.15,2013-07-10 06:27:00,
2013-07-10 02:31:00,72.1,70.6,30.07,SE,125,0.0,0.0,95,0.00,,,0.00,Wunderground v.1.15,2013-07-10 06:31:00,
2013-07-10 02:32:00,72.1,70.6,30.07,ESE,113,0.0,-999.0,95,0.00,,,0.96,Wunderground v.1.15,2013-07-10 06:32:00,
2013-07-10 02:37:00,72.1,70.6,30.07,N/A,-737280,0.0,-999.0,95,0.00,,,0.96,Wunderground v.1.15,2013-07-10 06:37:00,
2013-07-10 02:40:00,72.0,70.5,30.07,SE,124,0.0,0.0,95,0.00,,,0.00,Wunderground v.1.15,2013-07-10 06:40:00,
2013-07-10 02:42:00,72.0,70.5,30.07,N/A,-737280,0.0,-999.0,95,0.00,,,0.96,Wunderground v.1.15,2013-07-10 06:42:00,
2013-07-10 02:47:00,72.0,70.5,30.07,N/A,-737280,0.0,-999.0,95,0.00,,,0.96,Wunderground v.1.15,2013-07-10 06:47:00,
2013-07-10 02:50:00,72.0,70.8,30.07,SSE,151,0.0,0.0,96,0.00,,,0.00,Wunderground v.1.15,2013-07-10 06:50:00,
2013-07-10 02:52:00,72.0,70.8,30.07,SSE,158,0.0,-999.0,96,0.00,,,0.96,Wunderground v.1.15,2013-07-10 06:52:00,
2013-07-10 02:55:00,72.0,70.8,30.06,SSE,152,0.0,0.0,96,0.00,,,0.00,Wunderground v.1.15,2013-07-10 06:55:00,
2013-07-10 02:57:00,72.0,70.8,30.07,N/A,-737280,0.0,-999.0,96,0.00,,,0.96,Wunderground v.1.15,2013-07-10 06:57:00,
2013-07-10 03:00:00,72.1,70.9,30.06,SSE,147,0.0,0.0,96,0.00,,,0.00,Wunderground v.1.15,2013-07-10 07:00:00,
2013-07-10 03:02:00,72.0,70.8,30.06,N/A,-737280,0.0,-999.0,96,0.00,,,0.96,Wunderground v.1.15,2013-07-10 07:02:00,
2013-07-10 03:05:00,72.1,70.9,30.06,SSE,147,0.0,0.0,96,0.00,,,0.00,Wunderground v.1.15,2013-07-10 07:05:00,
2013-07-10 03:07:00,72.1,70.9,30.06,N/A,-737280,0.0,-999.0,96,0.00,,,0.96,Wunderground v.1.15,2013-07-10 07:07:00,
2013-07-10 03:12:00,72.1,70.9,30.06,N/A,-737280,0.0,-999.0,96,0.00,,,0.96,Wunderground v.1.15,2013-07-10 07:12:00,
2013-07-10 03:15:00,72.1,70.9,30.06,SE,133,0.0,0.0,96,0.00,,,0.00,Wunderground v.1.15,2013-07-10 07:15:00,
2013-07-10 03:17:00,72.1,70.9,30.06,SE,135,0.0,-999.0,96,0.00,,,0.96,Wunderground v.1.15,2013-07-10 07:17:00,
2013-07-10 03:20:00,72.1,70.9,30.06,SE,133,0.0,0.0,96,0.00,,,0.00,Wunderground v.1.15,2013-07-10 07:20:00,
2013-07-10 03:22:00,72.1,70.9,30.06,N/A,-737280,0.0,-999.0,96,0.00,,,0.96,Wunderground v.1.15,2013-07-10 07:22:00,
2013-07-10 03:25:00,72.0,70.8,30.06,SE,133,0.0,0.0,96,0.00,,,0.00,Wunderground v.1.15,2013-07-10 07:25:00,
2013-07-10 03:27:00,72.0,70.8,30.06,SE,135,0.0,-999.0,96,0.00,,,0.96,Wunderground v.1.15,2013-07-10 07:27:00,
2013-07-10 03:30:00,72.0,70.8,30.06,SE,133,0.0,0.0,96,0.00,,,0.00,Wunderground v.1.15,2013-07-10 07:30:00,
2013-07-10 03:32:00,72.0,70.8,30.06,N/A,-737280,0.0,-999.0,96,0.00,,,0.96,Wunderground v.1.15,2013-07-10 07:32:00,
2013-07-10 03:35:00,72.0,70.8,30.06,SE,133,0.0,0.0,96,0.00,,,0.00,Wunderground v.1.15,2013-07-10 07:35:00,
2013-07-10 03:37:00,72.0,70.8,30.06,N/A,-737280,0.0,-999.0,96,0.00,,,0.96,Wunderground v.1.15,2013-07-10 07:37:00,
2013-07-10 03:42:00,72.0,70.8,30.06,N/A,-737280,0.0,-999.0,96,0.00,,,0.96,Wunderground v.1.15,2013-07-10 07:42:00,
2013-07-10 03:45:00,71.9,70.7,30.06,SE,133,0.0,0.0,96,0.00,,,0.00,Wunderground v.1.15,2013-07-10 07:45:00,
2013-07-10 03:47:00,71.9,70.7,30.06,N/A,-737280,0.0,-999.0,96,0.00,,,0.96,Wunderground v.1.15,2013-07-10 07:47:00,
2013-07-10 03:50:00,71.9,70.7,30.06,SE,133,0.0,0.0,96,0.00,,,0.00,Wunderground v.1.15,2013-07-10 07:50:00,
2013-07-10 03:52:00,71.9,70.7,30.06,N/A,-737280,0.0,-999.0,96,0.00,,,0.96,Wunderground v.1.15,2013-07-10 07:52:00,
2013-07-10 03:55:00,71.9,70.7,30.06,South,175,0.0,0.0,96,0.00,,,0.00,Wunderground v.1.15,2013-07-10 07:55:00,
2013-07-10 03:57:00,71.8,70.6,30.06,N/A,-737280,0.0,-999.0,96,0.00,,,0.96,Wunderground v.1.15,2013-07-10 07:57:00,
2013-07-10 04:02:00,71.9,70.7,30.06,N/A,-737280,0.0,-999.0,96,0.00,,,0.96,Wunderground v.1.15,2013-07-10 08:02:00,
2013-07-10 04:05:00,71.8,70.6,30.06,South,175,0.0,0.0,96,0.00,,,0.00,Wunderground v.1.15,2013-07-10 08:05:00,
2013-07-10 04:07:00,71.8,70.6,30.06,N/A,-737280,0.0,-999.0,96,0.00,,,0.96,Wunderground v.1.15,2013-07-10 08:07:00,
2013-07-10 04:12:00,71.7,70.5,30.06,N/A,-737280,0.0,-999.0,96,0.00,,,0.96,Wunderground v.1.15,2013-07-10 08:12:00,
2013-07-10 04:15:00,71.7,70.5,30.06,South,175,0.0,0.0,96,0.00,,,0.00,Wunderground v.1.15,2013-07-10 08:15:00,
2013-07-10 04:17:00,71.7,70.5,30.06,N/A,-737280,0.0,-999.0,96,0.00,,,0.96,Wunderground v.1.15,2013-07-10 08:17:00,
2013-07-10 04:20:00,71.6,70.4,30.06,South,175,0.0,0.0,96,0.00,,,0.00,Wunderground v.1.15,2013-07-10 08:20:00,
2013-07-10 04:22:00,71.6,70.4,30.06,N/A,-737280,0.0,-999.0,96,0.00,,,0.96,Wunderground v.1.15,2013-07-10 08:22:00,
2013-07-10 04:27:00,71.6,70.4,30.06,N/A,-737280,0.0,-999.0,96,0.00,,,0.96,Wunderground v.1.15,2013-07-10 08:27:00,
2013-07-10 04:30:00,71.5,70.3,30.06,South,175,0.0,0.0,96,0.00,,,0.00,Wunderground v.1.15,2013-07-10 08:30:00,
2013-07-10 04:32:00,71.5,70.3,30.06,N/A,-737280,0.0,-999.0,96,0.00,,,0.96,Wunderground v.1.15,2013-07-10 08:32:00,
2013-07-10 04:35:00,71.5,70.3,30.06,South,175,0.0,0.0,96,0.00,,,0.00,Wunderground v.1.15,2013-07-10 08:35:00,
2013-07-10 04:37:00,71.5,70.3,30.06,N/A,-737280,0.0,-999.0,96,0.00,,,0.96,Wunderground v.1.15,2013-07-10 08:37:00,
2013-07-10 04:40:00,71.5,70.3,30.07,South,175,0.0,0.0,96,0.00,,,0.00,Wunderground v.1.15,2013-07-10 08:40:00,
2013-07-10 04:42:00,71.5,70.3,30.07,N/A,-737280,0.0,-999.0,96,0.00,,,0.96,Wunderground v.1.15,2013-07-10 08:42:00,
2013-07-10 04:45:00,71.5,70.3,30.06,South,175,0.0,0.0,96,0.00,,,0.00,Wunderground v.1.15,2013-07-10 08:45:00,
2013-07-10 04:47:00,71.5,70.3,30.07,N/A,-737280,0.0,-999.0,96,0.00,,,0.96,Wunderground v.1.15,2013-07-10 08:47:00,
2013-07-10 04:50:00,71.5,70.6,30.07,South,175,0.0,0.0,97,0.00,,,0.00,Wunderground v.1.15,2013-07-10 08:50:00,
2013-07-10 04:52:00,71.5,70.3,30.06,N/A,-737280,0.0,-999.0,96,0.00,,,0.96,Wunderground v.1.15,2013-07-10 08:52:00,
2013-07-10 04:55:00,71.6,70.7,30.07,South,175,0.0,0.0,97,0.00,,,0.00,Wunderground v.1.15,2013-07-10 08:55:00,
2013-07-10 04:57:00,71.6,70.7,30.07,N/A,-737280,0.0,-999.0,97,0.00,,,0.96,Wunderground v.1.15,2013-07-10 08:57:00,
2013-07-10 05:02:00,71.6,70.7,30.07,N/A,-737280,0.0,-999.0,97,0.00,,,0.96,Wunderground v.1.15,2013-07-10 09:02:00,
2013-07-10 05:05:00,71.7,70.8,30.06,West,272,0.0,0.0,97,0.00,,,0.00,Wunderground v.1.15,2013-07-10 09:05:00,
2013-07-10 05:07:00,71.7,70.8,30.06,West,270,0.0,-999.0,97,0.00,,,0.96,Wunderground v.1.15,2013-07-10 09:07:00,
2013-07-10 05:10:00,71.8,70.9,30.06,West,272,0.0,0.0,97,0.00,,,0.00,Wunderground v.1.15,2013-07-10 09:10:00,
2013-07-10 05:12:00,71.7,70.8,30.06,N/A,-737280,0.0,-999.0,97,0.00,,,0.96,Wunderground v.1.15,2013-07-10 09:12:00,
2013-07-10 05:15:00,71.8,70.9,30.06,West,272,0.0,0.0,97,0.00,,,0.00,Wunderground v.1.15,2013-07-10 09:15:00,
2013-07-10 05:17:00,71.8,70.9,30.06,N/A,-737280,0.0,-999.0,97,0.00,,,0.96,Wunderground v.1.15,2013-07-10 09:17:00,
2013-07-10 05:20:00,71.9,71.0,30.07,West,272,0.0,0.0,97,0.00,,,0.00,Wunderground v.1.15,2013-07-10 09:20:00,
2013-07-10 05:22:00,71.8,70.9,30.06,N/A,-737280,0.0,-999.0,97,0.00,,,0.96,Wunderground v.1.15,2013-07-10 09:22:00,
2013-07-10 05:25:00,71.9,71.0,30.07,South,181,0.0,0.0,97,0.00,,,0.00,Wunderground v.1.15,2013-07-10 09:25:00,
2013-07-10 05:27:00,71.9,71.0,30.07,West,270,0.0,-999.0,97,0.00,,,0.96,Wunderground v.1.15,2013-07-10 09:27:00,
2013-07-10 05:30:00,71.9,71.0,30.07,South,181,0.0,0.0,97,0.00,,,0.00,Wunderground v.1.15,2013-07-10 09:30:00,
2013-07-10 05:32:00,71.9,71.0,30.07,South,180,0.0,-999.0,97,0.00,,,0.96,Wunderground v.1.15,2013-07-10 09:32:00,
2013-07-10 05:37:00,71.9,71.0,30.07,WSW,248,0.0,-999.0,97,0.00,,,0.96,Wunderground v.1.15,2013-07-10 09:37:00,
2013-07-10 05:40:00,71.9,71.0,30.07,WSW,242,0.0,0.0,97,0.00,,,0.00,Wunderground v.1.15,2013-07-10 09:40:00,
2013-07-10 05:42:00,71.9,71.0,30.07,N/A,-737280,0.0,-999.0,97,0.00,,,0.96,Wunderground v.1.15,2013-07-10 09:42:00,
2013-07-10 05:47:00,71.9,71.0,30.07,N/A,-737280,0.0,-999.0,97,0.00,,,0.96,Wunderground v.1.15,2013-07-10 09:47:00,
2013-07-10 05:50:00,72.0,71.1,30.07,WSW,242,0.0,0.0,97,0.00,,,0.00,Wunderground v.1.15,2013-07-10 09:50:00,
2013-07-10 05:52:00,72.0,71.1,30.07,N/A,-737280,0.0,-999.0,97,0.00,,,0.96,Wunderground v.1.15,2013-07-10 09:52:00,
2013-07-10 05:57:00,72.0,71.1,30.07,N/A,-737280,0.0,-999.0,97,0.00,,,0.96,Wunderground v.1.15,2013-07-10 09:57:00,
2013-07-10 06:00:00,72.0,71.1,30.07,WSW,242,0.0,0.0,97,0.00,,,0.00,Wunderground v.1.15,2013-07-10 10:00:00,
2013-07-10 06:02:00,72.0,71.1,30.07,N/A,-737280,0.0,-999.0,97,0.00,,,0.96,Wunderground v.1.15,2013-07-10 10:02:00,
2013-07-10 06:05:00,72.0,71.1,30.07,WSW,242,0.0,0.0,97,0.00,,,0.00,Wunderground v.1.15,2013-07-10 10:05:00,
2013-07-10 06:07:00,72.0,71.1,30.07,N/A,-737280,0.0,-999.0,97,0.00,,,0.96,Wunderground v.1.15,2013-07-10 10:07:00,
2013-07-10 06:12:00,72.0,71.1,30.07,N/A,-737280,0.0,-999.0,97,0.00,,,0.96,Wunderground v.1.15,2013-07-10 10:12:00,
2013-07-10 06:15:00,72.1,71.2,30.07,WSW,242,0.0,0.0,97,0.00,,,0.00,Wunderground v.1.15,2013-07-10 10:15:00,
2013-07-10 06:17:00,72.0,71.1,30.07,N/A,-737280,0.0,-999.0,97,0.00,,,0.96,Wunderground v.1.15,2013-07-10 10:17:00,
2013-07-10 06:22:00,72.0,71.1,30.07,WSW,248,0.0,-999.0,97,0.00,,,0.96,Wunderground v.1.15,2013-07-10 10:22:00,
2013-07-10 06:25:00,72.0,71.1,30.07,WSW,242,0.0,0.0,97,0.00,,,0.00,Wunderground v.1.15,2013-07-10 10:25:00,
2013-07-10 06:27:00,72.0,71.1,30.07,N/A,-737280,0.0,-999.0,97,0.00,,,0.96,Wunderground v.1.15,2013-07-10 10:27:00,
2013-07-10 06:30:00,72.0,71.1,30.07,WSW,242,0.0,0.0,97,0.00,,,0.00,Wunderground v.1.15,2013-07-10 10:30:00,
2013-07-10 06:32:00,72.0,71.1,30.07,N/A,-737280,0.0,-999.0,97,0.00,,,0.96,Wunderground v.1.15,2013-07-10 10:32:00,
2013-07-10 06:35:00,72.0,71.1,30.07,WSW,242,0.0,0.0,97,0.00,,,0.00,Wunderground v.1.15,2013-07-10 10:35:00,
2013-07-10 06:37:00,72.0,71.1,30.07,N/A,-737280,0.0,-999.0,97,0.00,,,0.96,Wunderground v.1.15,2013-07-10 10:37:00,
2013-07-10 06:40:00,71.9,71.0,30.06,WSW,242,0.0,0.0,97,0.00,,,0.00,Wunderground v.1.15,2013-07-10 10:40:00,
2013-07-10 06:42:00,71.9,71.0,30.06,N/A,-737280,0.0,-999.0,97,0.00,,,0.96,Wunderground v.1.15,2013-07-10 10:42:00,
2013-07-10 06:45:00,71.9,71.0,30.06,WSW,242,0.0,0.0,97,0.00,,,0.00,Wunderground v.1.15,2013-07-10 10:45:00,
2013-07-10 06:47:00,71.9,71.0,30.06,N/A,-737280,0.0,-999.0,97,0.00,,,0.96,Wunderground v.1.15,2013-07-10 10:47:00,
2013-07-10 06:50:00,71.9,71.0,30.06,SE,137,0.0,0.0,97,0.00,,,0.00,Wunderground v.1.15,2013-07-10 10:50:00,
2013-07-10 06:52:00,71.9,71.0,30.06,N/A,-737280,0.0,-999.0,97,0.00,,,0.96,Wunderground v.1.15,2013-07-10 10:52:00,
2013-07-10 06:57:00,71.9,71.0,30.06,N/A,-737280,0.0,-999.0,97,0.00,,,0.96,Wunderground v.1.15,2013-07-10 10:57:00,
2013-07-10 07:00:00,71.9,71.0,30.06,SE,140,0.0,0.0,97,0.00,,,0.00,Wunderground v.1.15,2013-07-10 11:00:00,
2013-07-10 07:02:00,71.9,71.0,30.06,N/A,-737280,0.0,-999.0,97,0.00,,,0.96,Wunderground v.1.15,2013-07-10 11:02:00,
2013-07-10 07:07:00,71.9,71.0,30.06,N/A,-737280,0.0,-999.0,97,0.00,,,0.96,Wunderground v.1.15,2013-07-10 11:07:00,
2013-07-10 07:10:00,71.9,71.0,30.06,SE,145,0.0,0.0,97,0.00,,,0.00,Wunderground v.1.15,2013-07-10 11:10:00,
2013-07-10 07:12:00,71.9,71.0,30.06,N/A,-737280,0.0,-999.0,97,0.00,,,0.96,Wunderground v.1.15,2013-07-10 11:12:00,
2013-07-10 07:15:00,72.0,71.1,30.06,SE,145,0.0,0.0,97,0.00,,,0.00,Wunderground v.1.15,2013-07-10 11:15:00,
2013-07-10 07:17:00,71.9,71.0,30.06,N/A,-737280,0.0,-999.0,97,0.00,,,0.96,Wunderground v.1.15,2013-07-10 11:17:00,
2013-07-10 07:20:00,72.1,71.2,30.06,ESE,114,0.0,0.0,97,0.00,,,0.00,Wunderground v.1.15,2013-07-10 11:20:00,
2013-07-10 07:22:00,72.0,71.1,30.06,ESE,113,0.0,-999.0,97,0.00,,,0.96,Wunderground v.1.15,2013-07-10 11:22:00,
2013-07-10 07:25:00,72.1,71.2,30.07,ESE,114,0.0,0.0,97,0.00,,,0.00,Wunderground v.1.15,2013-07-10 11:25:00,
2013-07-10 07:27:00,72.1,71.2,30.07,N/A,-737280,0.0,-999.0,97,0.00,,,0.96,Wunderground v.1.15,2013-07-10 11:27:00,
2013-07-10 07:30:00,72.2,71.3,30.06,SSE,148,0.0,0.0,97,0.00,,,0.00,Wunderground v.1.15,2013-07-10 11:30:00,
2013-07-10 07:32:00,72.2,71.3,30.06,SSE,158,0.0,-999.0,97,0.00,,,0.96,Wunderground v.1.15,2013-07-10 11:32:00,
2013-07-10 07:37:00,72.3,71.4,30.06,N/A,-737280,0.0,-999.0,97,0.00,,,0.96,Wunderground v.1.15,2013-07-10 11:37:00,
2013-07-10 07:40:00,72.5,71.6,30.06,SSW,194,0.0,0.0,97,0.00,,,0.00,Wunderground v.1.15,2013-07-10 11:40:00,
2013-07-10 07:42:00,72.4,71.5,30.06,SSW,203,0.0,-999.0,97,0.00,,,0.96,Wunderground v.1.15,2013-07-10 11:42:00,
2013-07-10 07:45:00,72.6,71.7,30.06,South,190,0.0,0.0,97,0.00,,,0.00,Wunderground v.1.15,2013-07-10 11:45:00,
2013-07-10 07:47:00,72.5,71.6,30.06,South,180,0.0,-999.0,97,0.00,,,0.96,Wunderground v.1.15,2013-07-10 11:47:00,
2013-07-10 07:52:00,72.7,71.8,30.06,South,180,0.0,-999.0,97,0.00,,,0.96,Wunderground v.1.15,2013-07-10 11:52:00,
2013-07-10 07:55:00,72.9,72.0,30.06,SSW,204,0.0,0.0,97,0.00,,,0.00,Wunderground v.1.15,2013-07-10 11:55:00,
2013-07-10 07:57:00,72.8,71.9,30.06,South,180,0.0,-999.0,97,0.00,,,0.96,Wunderground v.1.15,2013-07-10 11:57:00,
2013-07-10 08:00:00,73.0,72.1,30.07,SW,231,0.0,0.0,97,0.00,,,0.00,Wunderground v.1.15,2013-07-10 12:00:00,
2013-07-10 08:02:00,73.0,72.1,30.06,SW,225,0.0,-999.0,97,0.00,,,0.96,Wunderground v.1.15,2013-07-10 12:02:00,
2013-07-10 08:07:00,73.1,72.2,30.07,SW,225,0.0,-999.0,97,0.00,,,0.96,Wunderground v.1.15,2013-07-10 12:07:00,
2013-07-10 08:10:00,73.4,72.2,30.06,SW,230,0.0,0.0,96,0.00,,,0.00,Wunderground v.1.15,2013-07-10 12:10:00,
2013-07-10 08:12:00,73.3,72.1,30.06,SW,225,0.0,-999.0,96,0.00,,,0.96,Wunderground v.1.15,2013-07-10 12:12:00,
2013-07-10 08:15:00,73.6,72.4,30.07,SW,230,0.0,0.0,96,0.00,,,0.00,Wunderground v.1.15,2013-07-10 12:15:00,
2013-07-10 08:17:00,73.5,72.3,30.06,N/A,-737280,0.0,-999.0,96,0.00,,,0.96,Wunderground v.1.15,2013-07-10 12:17:00,
2013-07-10 08:20:00,73.8,72.6,30.07,SSW,207,0.0,0.0,96,0.00,,,0.00,Wunderground v.1.15,2013-07-10 12:20:00,
2013-07-10 08:22:00,73.7,72.5,30.06,N/A,-737280,0.0,-999.0,96,0.00,,,0.96,Wunderground v.1.15,2013-07-10 12:22:00,
2013-07-10 08:25:00,74.0,72.8,30.07,SSW,207,0.0,0.0,96,0.00,,,0.00,Wunderground v.1.15,2013-07-10 12:25:00,
2013-07-10 08:27:00,73.9,72.7,30.07,SSW,203,0.0,-999.0,96,0.00,,,0.96,Wunderground v.1.15,2013-07-10 12:27:00,
2013-07-10 08:30:00,74.3,72.8,30.07,South,169,0.0,0.0,95,0.00,,,0.00,Wunderground v.1.15,2013-07-10 12:30:00,
2013-07-10 08:32:00,74.2,72.7,30.07,SSW,203,0.0,-999.0,95,0.00,,,0.96,Wunderground v.1.15,2013-07-10 12:32:00,
2013-07-10 08:35:00,74.4,72.9,30.07,SSW,202,0.0,0.0,95,0.00,,,0.00,Wunderground v.1.15,2013-07-10 12:35:00,
2013-07-10 08:37:00,74.3,72.8,30.07,SSW,203,0.0,-999.0,95,0.00,,,0.96,Wunderground v.1.15,2013-07-10 12:37:00,
2013-07-10 08:40:00,74.8,73.3,30.07,SSW,211,0.0,0.0,95,0.00,,,0.00,Wunderground v.1.15,2013-07-10 12:40:00,
2013-07-10 08:42:00,74.6,73.1,30.07,ESE,113,0.0,-999.0,95,0.00,,,0.96,Wunderground v.1.15,2013-07-10 12:42:00,
2013-07-10 08:45:00,75.1,73.3,30.07,ENE,73,0.0,0.0,94,0.00,,,0.00,Wunderground v.1.15,2013-07-10 12:45:00,
2013-07-10 08:47:00,75.0,73.5,30.07,N/A,-737280,0.0,-999.0,95,0.00,,,0.96,Wunderground v.1.15,2013-07-10 12:47:00,
2013-07-10 08:50:00,75.4,73.2,30.07,ENE,57,0.0,0.0,93,0.00,,,0.00,Wunderground v.1.15,2013-07-10 12:50:00,
2013-07-10 08:52:00,75.2,73.0,30.07,SSE,158,0.0,-999.0,93,0.00,,,0.96,Wunderground v.1.15,2013-07-10 12:52:00,
2013-07-10 08:55:00,75.7,73.5,30.07,NNW,343,0.0,0.0,93,0.00,,,0.00,Wunderground v.1.15,2013-07-10 12:55:00,
2013-07-10 08:57:00,75.5,73.0,30.07,East,90,0.0,-999.0,92,0.00,,,0.96,Wunderground v.1.15,2013-07-10 12:57:00,
2013-07-10 09:02:00,75.8,73.6,30.07,North,0,0.0,-999.0,93,0.00,,,0.96,Wunderground v.1.15,2013-07-10 13:02:00,
2013-07-10 09:05:00,76.2,73.7,30.07,West,275,0.0,0.0,92,0.00,,,0.00,Wunderground v.1.15,2013-07-10 13:05:00,
2013-07-10 09:07:00,76.0,73.2,30.07,SSW,203,0.0,-999.0,91,0.00,,,0.96,Wunderground v.1.15,2013-07-10 13:07:00,
2013-07-10 09:12:00,76.3,73.8,30.07,West,270,0.0,-999.0,92,0.00,,,0.96,Wunderground v.1.15,2013-07-10 13:12:00,
2013-07-10 09:15:00,77.0,74.2,30.07,West,277,0.0,0.0,91,0.00,,,0.00,Wunderground v.1.15,2013-07-10 13:15:00,
2013-07-10 09:17:00,76.7,73.9,30.07,N/A,-737280,0.0,-999.0,91,0.00,,,0.96,Wunderground v.1.15,2013-07-10 13:17:00,
2013-07-10 09:22:00,77.1,73.9,30.07,WSW,248,0.0,-999.0,90,0.00,,,0.96,Wunderground v.1.15,2013-07-10 13:22:00,
2013-07-10 09:25:00,77.6,74.1,30.07,SSE,165,0.0,0.0,89,0.00,,,0.00,Wunderground v.1.15,2013-07-10 13:25:00,
2013-07-10 09:27:00,77.5,74.0,30.07,SW,225,0.0,-999.0,89,0.00,,,0.96,Wunderground v.1.15,2013-07-10 13:27:00,
2013-07-10 09:31:00,77.9,74.4,30.07,East,99,0.0,0.0,89,0.00,,,0.00,Wunderground v.1.15,2013-07-10 13:31:00,
2013-07-10 09:32:00,77.7,74.2,30.07,SSE,158,0.0,-999.0,89,0.00,,,0.96,Wunderground v.1.15,2013-07-10 13:32:00,
2013-07-10 09:35:00,78.2,74.7,30.07,ESE,104,0.0,0.0,89,0.00,,,0.00,Wunderground v.1.15,2013-07-10 13:35:00,
2013-07-10 09:37:00,78.0,74.5,30.07,N/A,-737280,0.0,-999.0,89,0.00,,,0.96,Wunderground v.1.15,2013-07-10 13:37:00,
2013-07-10 09:40:00,78.7,74.8,30.07,WSW,252,0.0,0.0,88,0.00,,,0.00,Wunderground v.1.15,2013-07-10 13:40:00,
2013-07-10 09:42:00,78.4,74.9,30.07,East,90,0.0,-999.0,89,0.00,,,0.96,Wunderground v.1.15,2013-07-10 13:42:00,
2013-07-10 09:45:00,79.0,74.8,30.07,SSW,213,0.0,0.0,87,0.00,,,0.00,Wunderground v.1.15,2013-07-10 13:45:00,
2013-07-10 09:47:00,78.9,75.0,30.07,SW,225,1.0,-999.0,88,0.00,,,0.96,Wunderground v.1.15,2013-07-10 13:47:00,
2013-07-10 09:50:00,79.3,74.7,30.07,SSW,202,1.0,1.0,86,0.00,,,0.00,Wunderground v.1.15,2013-07-10 13:50:00,
2013-07-10 09:52:00,79.2,75.0,30.07,WSW,248,0.0,-999.0,87,0.00,,,0.96,Wunderground v.1.15,2013-07-10 13:52:00,
2013-07-10 09:55:00,79.7,74.4,30.06,ESE,111,0.0,0.0,84,0.00,,,0.00,Wunderground v.1.15,2013-07-10 13:55:00,
2013-07-10 09:57:00,79.5,74.6,30.06,SE,135,0.0,-999.0,85,0.00,,,0.96,Wunderground v.1.15,2013-07-10 13:57:00,
2013-07-10 10:00:00,80.2,75.3,30.06,West,271,0.0,0.0,85,0.00,,,0.00,Wunderground v.1.15,2013-07-10 14:00:00,
2013-07-10 10:02:00,80.0,74.7,30.06,ESE,113,0.0,-999.0,84,0.00,,,0.96,Wunderground v.1.15,2013-07-10 14:02:00,
2013-07-10 10:07:00,80.3,74.7,30.06,West,270,0.0,-999.0,83,0.00,,,0.96,Wunderground v.1.15,2013-07-10 14:07:00,
2013-07-10 10:10:00,80.7,75.1,30.06,South,175,0.0,1.0,83,0.00,,,0.00,Wunderground v.1.15,2013-07-10 14:10:00,
2013-07-10 10:12:00,80.5,74.9,30.06,ESE,113,0.0,-999.0,83,0.00,,,0.96,Wunderground v.1.15,2013-07-10 14:12:00,
2013-07-10 10:15:00,81.1,75.1,30.06,SSE,167,0.0,1.0,82,0.00,,,0.00,Wunderground v.1.15,2013-07-10 14:15:00,
2013-07-10 10:17:00,80.9,74.9,30.06,South,180,0.0,-999.0,82,0.00,,,0.96,Wunderground v.1.15,2013-07-10 14:17:00,
2013-07-10 10:20:00,81.7,75.7,30.06,SW,236,0.0,0.0,82,0.00,,,0.00,Wunderground v.1.15,2013-07-10 14:20:00,
2013-07-10 10:22:00,81.4,75.4,30.06,West,270,0.0,-999.0,82,0.00,,,0.96,Wunderground v.1.15,2013-07-10 14:22:00,
2013-07-10 10:25:00,82.1,75.7,30.06,SW,229,0.0,0.0,81,0.00,,,0.00,Wunderground v.1.15,2013-07-10 14:25:00,
2013-07-10 10:27:00,81.8,75.8,30.06,SW,225,0.0,-999.0,82,0.00,,,0.96,Wunderground v.1.15,2013-07-10 14:27:00,
2013-07-10 10:32:00,82.3,75.5,30.06,SW,225,0.0,-999.0,80,0.00,,,0.96,Wunderground v.1.15,2013-07-10 14:32:00,
2013-07-10 10:35:00,82.7,75.9,30.06,SE,129,0.0,0.0,80,0.00,,,0.00,Wunderground v.1.15,2013-07-10 14:35:00,
2013-07-10 10:37:00,82.5,75.7,30.06,WNW,293,0.0,-999.0,80,0.00,,,0.96,Wunderground v.1.15,2013-07-10 14:37:00,
2013-07-10 10:42:00,82.9,75.7,30.06,ESE,113,0.0,-999.0,79,0.00,,,0.96,Wunderground v.1.15,2013-07-10 14:42:00,
2013-07-10 10:45:00,83.4,75.4,30.06,SSE,155,0.0,0.0,77,0.00,,,0.00,Wunderground v.1.15,2013-07-10 14:45:00,
2013-07-10 10:47:00,83.2,76.0,30.06,SW,225,0.0,-999.0,79,0.00,,,0.96,Wunderground v.1.15,2013-07-10 14:47:00,
2013-07-10 10:50:00,83.3,75.7,30.06,WSW,254,0.0,0.0,78,0.00,,,0.00,Wunderground v.1.15,2013-07-10 14:50:00,
2013-07-10 10:52:00,83.3,75.7,30.06,South,180,0.0,-999.0,78,0.00,,,0.96,Wunderground v.1.15,2013-07-10 14:52:00,
2013-07-10 10:57:00,83.2,75.6,30.06,WSW,248,0.0,-999.0,78,0.00,,,0.96,Wunderground v.1.15,2013-07-10 14:57:00,
2013-07-10 11:00:00,82.4,76.0,30.06,SW,236,0.0,0.0,81,0.00,,,0.00,Wunderground v.1.15,2013-07-10 15:00:00,
2013-07-10 11:02:00,82.9,76.1,30.06,NNW,338,0.0,-999.0,80,0.00,,,0.96,Wunderground v.1.15,2013-07-10 15:02:00,
2013-07-10 11:05:00,82.1,76.1,30.06,SW,234,0.0,0.0,82,0.00,,,0.00,Wunderground v.1.15,2013-07-10 15:05:00,
2013-07-10 11:07:00,82.2,75.8,30.06,SW,225,0.0,-999.0,81,0.00,,,0.96,Wunderground v.1.15,2013-07-10 15:07:00,
2013-07-10 11:10:00,82.1,76.1,30.06,SSE,155,0.0,0.0,82,0.00,,,0.00,Wunderground v.1.15,2013-07-10 15:10:00,
2013-07-10 11:12:00,82.1,75.3,30.06,SE,135,0.0,-999.0,80,0.00,,,0.96,Wunderground v.1.15,2013-07-10 15:12:00,
2013-07-10 11:15:00,82.2,75.8,30.07,East,88,0.0,0.0,81,0.00,,,0.00,Wunderground v.1.15,2013-07-10 15:15:00,
2013-07-10 11:17:00,82.2,75.4,30.06,West,270,0.0,-999.0,80,0.00,,,0.96,Wunderground v.1.15,2013-07-10 15:17:00,
2013-07-10 11:20:00,82.4,75.6,30.06,South,175,0.0,0.0,80,0.00,,,0.00,Wunderground v.1.15,2013-07-10 15:20:00,
2013-07-10 11:22:00,82.3,75.5,30.06,WSW,248,0.0,-999.0,80,0.00,,,0.96,Wunderground v.1.15,2013-07-10 15:22:00,
2013-07-10 11:25:00,82.7,75.5,30.06,WSW,246,0.0,4.0,79,0.00,,,0.00,Wunderground v.1.15,2013-07-10 15:25:00,
2013-07-10 11:27:00,82.5,75.3,30.06,SSW,203,1.0,-999.0,79,0.00,,,0.96,Wunderground v.1.15,2013-07-10 15:27:00,
2013-07-10 11:30:00,82.8,75.6,30.06,WSW,242,0.0,0.0,79,0.00,,,0.00,Wunderground v.1.15,2013-07-10 15:30:00,
2013-07-10 11:32:00,82.7,74.8,30.06,South,180,0.0,-999.0,77,0.00,,,0.96,Wunderground v.1.15,2013-07-10 15:32:00,
2013-07-10 11:35:00,83.1,75.9,30.06,WSW,241,0.0,0.0,79,0.00,,,0.00,Wunderground v.1.15,2013-07-10 15:35:00,
2013-07-10 11:37:00,82.9,75.7,30.06,SW,225,0.0,-999.0,79,0.00,,,0.96,Wunderground v.1.15,2013-07-10 15:37:00,
2013-07-10 11:40:00,83.5,75.9,30.06,SE,128,0.0,0.0,78,0.00,,,0.00,Wunderground v.1.15,2013-07-10 15:40:00,
2013-07-10 11:42:00,83.3,75.7,30.06,SE,135,1.0,-999.0,78,0.00,,,0.96,Wunderground v.1.15,2013-07-10 15:42:00,
2013-07-10 11:45:00,83.6,76.4,30.06,WNW,282,0.0,0.0,79,0.00,,,0.00,Wunderground v.1.15,2013-07-10 15:45:00,
2013-07-10 11:47:00,83.5,75.9,30.06,West,270,0.0,-999.0,78,0.00,,,0.96,Wunderground v.1.15,2013-07-10 15:47:00,
2013-07-10 11:52:00,83.6,76.0,30.06,West,270,0.0,-999.0,78,0.00,,,0.96,Wunderground v.1.15,2013-07-10 15:52:00,
2013-07-10 11:55:00,83.6,75.6,30.06,ESE,104,0.0,0.0,77,0.00,,,0.00,Wunderground v.1.15,2013-07-10 15:55:00,
2013-07-10 11:57:00,83.6,75.6,30.06,SE,135,0.0,-999.0,77,0.00,,,0.96,Wunderground v.1.15,2013-07-10 15:57:00,
2013-07-10 12:00:00,83.7,75.7,30.06,WSW,238,0.0,0.0,77,0.00,,,0.00,Wunderground v.1.15,2013-07-10 16:00:00,
2013-07-10 12:02:00,83.6,75.2,30.06,SE,135,0.0,-999.0,76,0.00,,,0.96,Wunderground v.1.15,2013-07-10 16:02:00,
2013-07-10 12:05:00,84.2,76.6,30.06,East,88,0.0,0.0,78,0.00,,,0.00,Wunderground v.1.15,2013-07-10 16:05:00,
2013-07-10 12:07:00,83.9,75.9,30.06,SE,135,0.0,-999.0,77,0.00,,,0.96,Wunderground v.1.15,2013-07-10 16:07:00,
2013-07-10 12:10:00,84.4,76.0,30.06,ESE,109,1.0,1.0,76,0.00,,,0.00,Wunderground v.1.15,2013-07-10 16:10:00,
2013-07-10 12:12:00,84.4,76.4,30.06,ENE,68,1.0,-999.0,77,0.00,,,0.96,Wunderground v.1.15,2013-07-10 16:12:00,
2013-07-10 12:15:00,84.5,76.1,30.06,SSE,150,0.0,1.0,76,0.00,,,0.00,Wunderground v.1.15,2013-07-10 16:15:00,
2013-07-10 12:17:00,84.4,76.0,30.06,SW,225,1.0,-999.0,76,0.00,,,0.96,Wunderground v.1.15,2013-07-10 16:17:00,
2013-07-10 12:20:00,84.6,76.6,30.06,SW,224,0.0,0.0,77,0.00,,,0.00,Wunderground v.1.15,2013-07-10 16:20:00,
2013-07-10 12:22:00,84.6,75.8,30.06,SSW,203,0.0,-999.0,75,0.00,,,0.96,Wunderground v.1.15,2013-07-10 16:22:00,
2013-07-10 12:25:00,84.6,75.8,30.06,SW,236,0.0,0.0,75,0.00,,,0.00,Wunderground v.1.15,2013-07-10 16:25:00,
2013-07-10 12:27:00,84.6,76.6,30.06,SW,225,0.0,-999.0,77,0.00,,,0.96,Wunderground v.1.15,2013-07-10 16:27:00,
2013-07-10 12:32:00,84.7,75.9,30.06,SW,225,0.0,-999.0,75,0.00,,,0.96,Wunderground v.1.15,2013-07-10 16:32:00,
2013-07-10 12:35:00,85.0,76.6,30.06,WSW,246,0.0,0.0,76,0.00,,,0.00,Wunderground v.1.15,2013-07-10 16:35:00,
2013-07-10 12:37:00,84.9,76.5,30.06,WNW,293,0.0,-999.0,76,0.00,,,0.96,Wunderground v.1.15,2013-07-10 16:37:00,
2013-07-10 12:42:00,85.0,76.6,30.06,SW,225,0.0,-999.0,76,0.00,,,0.96,Wunderground v.1.15,2013-07-10 16:42:00,
2013-07-10 12:45:00,85.1,75.9,30.06,SSE,167,0.0,0.0,74,0.00,,,0.00,Wunderground v.1.15,2013-07-10 16:45:00,
2013-07-10 12:47:00,85.1,75.9,30.06,South,180,1.0,-999.0,74,0.00,,,0.96,Wunderground v.1.15,2013-07-10 16:47:00,
2013-07-10 12:52:00,85.2,75.6,30.06,SSE,158,0.0,-999.0,73,0.00,,,0.96,Wunderground v.1.15,2013-07-10 16:52:00,
2013-07-10 12:55:00,84.7,75.5,30.06,South,182,0.0,0.0,74,0.00,,,0.00,Wunderground v.1.15,2013-07-10 16:55:00,
2013-07-10 12:57:00,84.9,76.1,30.06,NNE,23,0.0,-999.0,75,0.00,,,0.96,Wunderground v.1.15,2013-07-10 16:57:00,
2013-07-10 13:00:00,84.2,76.2,30.05,South,186,0.0,0.0,77,0.00,,,0.00,Wunderground v.1.15,2013-07-10 17:00:00,
2013-07-10 13:02:00,84.5,75.7,30.05,WSW,248,0.0,-999.0,75,0.00,,,0.96,Wunderground v.1.15,2013-07-10 17:02:00,
2013-07-10 13:05:00,84.4,76.8,30.05,WSW,257,0.0,3.0,78,0.00,,,0.00,Wunderground v.1.15,2013-07-10 17:05:00,
2013-07-10 13:07:00,84.3,75.9,30.05,SSW,203,0.0,-999.0,76,0.00,,,0.96,Wunderground v.1.15,2013-07-10 17:07:00,
2013-07-10 13:10:00,84.7,76.3,30.05,SSE,159,0.0,0.0,76,0.00,,,0.00,Wunderground v.1.15,2013-07-10 17:10:00,
2013-07-10 13:12:00,84.6,77.0,30.05,WSW,248,0.0,-999.0,78,0.00,,,0.96,Wunderground v.1.15,2013-07-10 17:12:00,
2013-07-10 13:15:00,85.1,76.7,30.05,WSW,242,1.0,1.0,76,0.00,,,0.00,Wunderground v.1.15,2013-07-10 17:15:00,
2013-07-10 13:17:00,84.9,76.5,30.05,WSW,248,1.0,-999.0,76,0.00,,,0.96,Wunderground v.1.15,2013-07-10 17:17:00,
2013-07-10 13:20:00,86.1,76.8,30.05,SSE,159,0.0,0.0,74,0.00,,,0.00,Wunderground v.1.15,2013-07-10 17:20:00,
2013-07-10 13:22:00,85.5,77.9,30.05,WSW,248,0.0,-999.0,78,0.00,,,0.96,Wunderground v.1.15,2013-07-10 17:22:00,
2013-07-10 13:27:00,86.5,77.2,30.04,North,0,0.0,-999.0,74,0.00,,,0.96,Wunderground v.1.15,2013-07-10 17:27:00,
2013-07-10 13:30:00,87.2,76.2,30.04,NW,315,0.0,0.0,70,0.00,,,0.00,Wunderground v.1.15,2013-07-10 17:30:00,
2013-07-10 13:32:00,87.0,76.0,30.05,SE,135,1.0,-999.0,70,0.00,,,0.96,Wunderground v.1.15,2013-07-10 17:32:00,
2013-07-10 13:35:00,87.4,76.4,30.04,SSE,158,0.0,0.0,70,0.00,,,0.00,Wunderground v.1.15,2013-07-10 17:35:00,
2013-07-10 13:37:00,87.3,76.3,30.04,NW,315,0.0,-999.0,70,0.00,,,0.96,Wunderground v.1.15,2013-07-10 17:37:00,
2013-07-10 13:40:00,87.3,77.6,30.04,South,169,0.0,4.0,73,0.00,,,0.00,Wunderground v.1.15,2013-07-10 17:40:00,
2013-07-10 13:42:00,87.4,76.4,30.04,SSE,158,0.0,-999.0,70,0.00,,,0.96,Wunderground v.1.15,2013-07-10 17:42:00,
2013-07-10 13:45:00,87.0,75.6,30.04,SSE,163,1.0,4.0,69,0.00,,,0.00,Wunderground v.1.15,2013-07-10 17:45:00,
2013-07-10 13:47:00,87.2,77.1,30.04,SSW,203,1.0,-999.0,72,0.00,,,0.96,Wunderground v.1.15,2013-07-10 17:47:00,
2013-07-10 13:52:00,86.9,76.4,30.03,South,180,0.0,-999.0,71,0.00,,,0.96,Wunderground v.1.15,2013-07-10 17:52:00,
2013-07-10 13:55:00,86.7,75.7,30.03,SSE,157,0.0,1.0,70,0.00,,,0.00,Wunderground v.1.15,2013-07-10 17:55:00,
2013-07-10 13:57:00,86.7,76.6,30.03,SSE,158,0.0,-999.0,72,0.00,,,0.96,Wunderground v.1.15,2013-07-10 17:57:00,
2013-07-10 14:02:00,86.7,75.7,30.03,SSE,158,0.0,-999.0,70,0.00,,,0.96,Wunderground v.1.15,2013-07-10 18:02:00,
2013-07-10 14:05:00,86.7,77.0,30.02,SW,235,0.0,0.0,73,0.00,,,0.00,Wunderground v.1.15,2013-07-10 18:05:00,
2013-07-10 14:07:00,86.6,76.5,30.03,SSW,203,0.0,-999.0,72,0.00,,,0.96,Wunderground v.1.15,2013-07-10 18:07:00,
2013-07-10 14:10:00,87.0,77.3,30.02,SSW,205,0.0,0.0,73,0.00,,,0.00,Wunderground v.1.15,2013-07-10 18:10:00,
2013-07-10 14:12:00,87.0,76.9,30.02,SSW,203,0.0,-999.0,72,0.00,,,0.96,Wunderground v.1.15,2013-07-10 18:12:00,
2013-07-10 14:15:00,87.0,76.5,30.02,SSE,161,0.0,0.0,71,0.00,,,0.00,Wunderground v.1.15,2013-07-10 18:15:00,
2013-07-10 14:17:00,86.9,76.4,30.02,ESE,113,0.0,-999.0,71,0.00,,,0.96,Wunderground v.1.15,2013-07-10 18:17:00,
2013-07-10 14:20:00,87.1,76.5,30.01,East,90,0.0,0.0,71,0.00,,,0.00,Wunderground v.1.15,2013-07-10 18:20:00,
2013-07-10 14:22:00,87.0,76.0,30.01,SSE,158,0.0,-999.0,70,0.00,,,0.96,Wunderground v.1.15,2013-07-10 18:22:00,
2013-07-10 14:25:00,87.4,76.0,30.01,SSW,205,0.0,0.0,69,0.00,,,0.00,Wunderground v.1.15,2013-07-10 18:25:00,
2013-07-10 14:27:00,87.2,76.2,30.01,SE,135,0.0,-999.0,70,0.00,,,0.96,Wunderground v.1.15,2013-07-10 18:27:00,
2013-07-10 14:30:00,87.5,76.1,30.01,ENE,66,0.0,0.0,69,0.00,,,0.00,Wunderground v.1.15,2013-07-10 18:30:00,
2013-07-10 14:32:00,87.4,76.8,30.01,SSW,203,0.0,-999.0,71,0.00,,,0.96,Wunderground v.1.15,2013-07-10 18:32:00,
2013-07-10 14:37:00,87.4,76.8,30.00,ESE,113,0.0,-999.0,71,0.00,,,0.96,Wunderground v.1.15,2013-07-10 18:37:00,
2013-07-10 14:40:00,87.4,76.8,30.00,SSE,154,0.0,0.0,71,0.00,,,0.00,Wunderground v.1.15,2013-07-10 18:40:00,
2013-07-10 14:42:00,87.4,76.8,30.00,WSW,248,0.0,-999.0,71,0.00,,,0.96,Wunderground v.1.15,2013-07-10 18:42:00,
2013-07-10 14:45:00,87.3,76.3,30.00,WNW,292,0.0,0.0,70,0.00,,,0.00,Wunderground v.1.15,2013-07-10 18:45:00,
2013-07-10 14:47:00,87.4,76.8,30.00,South,180,0.0,-999.0,71,0.00,,,0.96,Wunderground v.1.15,2013-07-10 18:47:00,
2013-07-10 14:50:00,87.3,76.7,30.00,SSW,192,0.0,0.0,71,0.00,,,0.00,Wunderground v.1.15,2013-07-10 18:50:00,
2013-07-10 14:52:00,87.3,77.2,30.00,SW,225,0.0,-999.0,72,0.00,,,0.96,Wunderground v.1.15,2013-07-10 18:52:00,
2013-07-10 14:55:00,87.5,76.9,29.99,ESE,123,0.0,0.0,71,0.00,,,0.00,Wunderground v.1.15,2013-07-10 18:55:00,
2013-07-10 14:57:00,87.3,76.3,30.00,SSW,203,0.0,-999.0,70,0.00,,,0.96,Wunderground v.1.15,2013-07-10 18:57:00,
2013-07-10 15:00:00,87.4,76.4,29.99,ESE,102,0.0,0.0,70,0.00,,,0.00,Wunderground v.1.15,2013-07-10 19:00:00,
2013-07-10 15:02:00,87.6,77.0,29.99,WSW,248,0.0,-999.0,71,0.00,,,0.96,Wunderground v.1.15,2013-07-10 19:02:00,
2013-07-10 15:05:00,87.3,76.7,29.99,East,101,0.0,0.0,71,0.00,,,0.00,Wunderground v.1.15,2013-07-10 19:05:00,
2013-07-10 15:07:00,87.3,77.2,29.99,West,270,0.0,-999.0,72,0.00,,,0.96,Wunderground v.1.15,2013-07-10 19:07:00,
2013-07-10 15:10:00,87.7,77.1,29.98,South,187,0.0,0.0,71,0.00,,,0.00,Wunderground v.1.15,2013-07-10 19:10:00,
2013-07-10 15:12:00,87.5,76.9,29.99,West,270,0.0,-999.0,71,0.00,,,0.96,Wunderground v.1.15,2013-07-10 19:12:00,
2013-07-10 15:15:00,87.8,76.8,29.99,SSW,207,0.0,0.0,70,0.00,,,0.00,Wunderground v.1.15,2013-07-10 19:15:00,
2013-07-10 15:17:00,87.8,77.2,29.99,South,180,0.0,-999.0,71,0.00,,,0.96,Wunderground v.1.15,2013-07-10 19:17:00,
2013-07-10 15:20:00,87.5,76.9,29.98,SE,126,1.0,1.0,71,0.00,,,0.00,Wunderground v.1.15,2013-07-10 19:20:00,
2013-07-10 15:22:00,87.7,76.7,29.98,SSW,203,1.0,-999.0,70,0.00,,,0.96,Wunderground v.1.15,2013-07-10 19:22:00,
2013-07-10 15:25:00,87.4,76.8,29.98,ESE,121,0.0,1.0,71,0.00,,,0.00,Wunderground v.1.15,2013-07-10 19:25:00,
2013-07-10 15:27:00,87.4,76.8,29.98,ENE,68,0.0,-999.0,71,0.00,,,0.96,Wunderground v.1.15,2013-07-10 19:27:00,
2013-07-10 15:30:00,87.5,76.5,29.98,South,191,0.0,0.0,70,0.00,,,0.00,Wunderground v.1.15,2013-07-10 19:30:00,
2013-07-10 15:32:00,87.4,76.4,29.98,ESE,113,0.0,-999.0,70,0.00,,,0.96,Wunderground v.1.15,2013-07-10 19:32:00,
2013-07-10 15:35:00,87.5,76.5,29.98,SSE,165,0.0,1.0,70,0.00,,,0.00,Wunderground v.1.15,2013-07-10 19:35:00,
2013-07-10 15:37:00,87.6,76.2,29.98,SSW,203,0.0,-999.0,69,0.00,,,0.96,Wunderground v.1.15,2013-07-10 19:37:00,
2013-07-10 15:40:00,87.0,76.9,29.97,ENE,67,0.0,0.0,72,0.00,,,0.00,Wunderground v.1.15,2013-07-10 19:40:00,
2013-07-10 15:42:00,87.2,76.6,29.97,WSW,248,0.0,-999.0,71,0.00,,,0.96,Wunderground v.1.15,2013-07-10 19:42:00,
2013-07-10 15:45:00,87.0,76.9,29.97,SSW,194,0.0,0.0,72,0.00,,,0.00,Wunderground v.1.15,2013-07-10 19:45:00,
2013-07-10 15:47:00,87.0,76.5,29.97,ENE,68,0.0,-999.0,71,0.00,,,0.96,Wunderground v.1.15,2013-07-10 19:47:00,
2013-07-10 15:50:00,87.0,76.0,29.97,SSW,203,0.0,0.0,70,0.00,,,0.00,Wunderground v.1.15,2013-07-10 19:50:00,
2013-07-10 15:52:00,87.1,77.0,29.97,South,180,0.0,-999.0,72,0.00,,,0.96,Wunderground v.1.15,2013-07-10 19:52:00,
2013-07-10 15:55:00,86.7,77.0,29.97,South,179,0.0,0.0,73,0.00,,,0.00,Wunderground v.1.15,2013-07-10 19:55:00,
2013-07-10 15:57:00,86.9,76.8,29.97,South,180,0.0,-999.0,72,0.00,,,0.96,Wunderground v.1.15,2013-07-10 19:57:00,
2013-07-10 16:00:00,86.4,75.9,29.97,SSE,150,0.0,0.0,71,0.00,,,0.00,Wunderground v.1.15,2013-07-10 20:00:00,
2013-07-10 16:02:00,86.5,77.2,29.97,SSW,203,0.0,-999.0,74,0.00,,,0.96,Wunderground v.1.15,2013-07-10 20:02:00,
2013-07-10 16:05:00,86.8,76.7,29.98,SSE,168,0.0,0.0,72,0.00,,,0.00,Wunderground v.1.15,2013-07-10 20:05:00,
2013-07-10 16:07:00,86.6,76.5,29.97,South,180,1.0,-999.0,72,0.00,,,0.96,Wunderground v.1.15,2013-07-10 20:07:00,
2013-07-10 16:12:00,87.0,76.0,29.98,SW,225,1.0,-999.0,70,0.00,,,0.96,Wunderground v.1.15,2013-07-10 20:12:00,
2013-07-10 16:15:00,87.4,77.3,29.98,ESE,113,0.0,0.0,72,0.00,,,0.00,Wunderground v.1.15,2013-07-10 20:15:00,
2013-07-10 16:17:00,87.2,76.6,29.98,ESE,113,0.0,-999.0,71,0.00,,,0.96,Wunderground v.1.15,2013-07-10 20:17:00,
2013-07-10 16:20:00,87.7,77.5,29.97,SE,143,0.0,0.0,72,0.00,,,0.00,Wunderground v.1.15,2013-07-10 20:20:00,
2013-07-10 16:22:00,87.5,76.9,29.98,East,90,0.0,-999.0,71,0.00,,,0.96,Wunderground v.1.15,2013-07-10 20:22:00,
2013-07-10 16:25:00,88.0,76.1,29.97,West,269,1.0,1.0,68,0.00,,,0.00,Wunderground v.1.15,2013-07-10 20:25:00,
2013-07-10 16:27:00,87.8,76.4,29.97,East,90,0.0,-999.0,69,0.00,,,0.96,Wunderground v.1.15,2013-07-10 20:27:00,
2013-07-10 16:30:00,88.1,77.1,29.97,ENE,61,0.0,1.0,70,0.00,,,0.00,Wunderground v.1.15,2013-07-10 20:30:00,
2013-07-10 16:32:00,88.1,76.6,29.97,West,270,0.0,-999.0,69,0.00,,,0.96,Wunderground v.1.15,2013-07-10 20:32:00,
2013-07-10 16:35:00,87.9,76.5,29.97,ESE,117,0.0,0.0,69,0.00,,,0.00,Wunderground v.1.15,2013-07-10 20:35:00,
2013-07-10 16:37:00,88.0,76.5,29.97,SSE,158,1.0,-999.0,69,0.00,,,0.96,Wunderground v.1.15,2013-07-10 20:37:00,
2013-07-10 16:40:00,87.7,76.7,29.96,SSW,202,0.0,0.0,70,0.00,,,0.00,Wunderground v.1.15,2013-07-10 20:40:00,
2013-07-10 16:42:00,87.8,76.4,29.96,WSW,248,0.0,-999.0,69,0.00,,,0.96,Wunderground v.1.15,2013-07-10 20:42:00,
2013-07-10 16:45:00,87.7,76.7,29.96,SSE,154,0.0,0.0,70,0.00,,,0.00,Wunderground v.1.15,2013-07-10 20:45:00,
2013-07-10 16:47:00,87.7,76.3,29.96,SSW,203,0.0,-999.0,69,0.00,,,0.96,Wunderground v.1.15,2013-07-10 20:47:00,
2013-07-10 16:52:00,87.6,77.0,29.96,SSE,158,0.0,-999.0,71,0.00,,,0.96,Wunderground v.1.15,2013-07-10 20:52:00,
2013-07-10 16:55:00,88.0,76.5,29.95,South,190,0.0,0.0,69,0.00,,,0.00,Wunderground v.1.15,2013-07-10 20:55:00,
2013-07-10 16:57:00,87.9,76.9,29.95,South,180,0.0,-999.0,70,0.00,,,0.96,Wunderground v.1.15,2013-07-10 20:57:00,
2013-07-10 17:02:00,88.1,77.1,29.95,SSW,203,0.0,-999.0,70,0.00,,,0.96,Wunderground v.1.15,2013-07-10 21:02:00,
2013-07-10 17:05:00,87.6,77.5,29.95,South,174,0.0,0.0,72,0.00,,,0.00,Wunderground v.1.15,2013-07-10 21:05:00,
2013-07-10 17:07:00,87.7,77.1,29.95,WSW,248,0.0,-999.0,71,0.00,,,0.96,Wunderground v.1.15,2013-07-10 21:07:00,
2013-07-10 17:11:00,87.6,77.0,29.95,South,188,0.0,0.0,71,0.00,,,0.00,Wunderground v.1.15,2013-07-10 21:11:00,
2013-07-10 17:12:00,87.5,77.4,29.95,SSW,203,0.0,-999.0,72,0.00,,,0.96,Wunderground v.1.15,2013-07-10 21:12:00,
2013-07-10 17:15:00,87.7,76.7,29.95,SE,141,0.0,0.0,70,0.00,,,0.00,Wunderground v.1.15,2013-07-10 21:15:00,
2013-07-10 17:17:00,87.6,76.6,29.95,South,180,0.0,-999.0,70,0.00,,,0.96,Wunderground v.1.15,2013-07-10 21:17:00,
2013-07-10 17:20:00,87.8,77.2,29.95,SW,231,0.0,0.0,71,0.00,,,0.00,Wunderground v.1.15,2013-07-10 21:20:00,
2013-07-10 17:22:00,87.7,76.7,29.95,SE,135,0.0,-999.0,70,0.00,,,0.96,Wunderground v.1.15,2013-07-10 21:22:00,
2013-07-10 17:25:00,87.3,75.9,29.95,West,281,0.0,0.0,69,0.00,,,0.00,Wunderground v.1.15,2013-07-10 21:25:00,
2013-07-10 17:27:00,87.7,76.7,29.95,SSW,203,1.0,-999.0,70,0.00,,,0.96,Wunderground v.1.15,2013-07-10 21:27:00,
2013-07-10 17:30:00,86.7,77.0,29.95,West,265,0.0,0.0,73,0.00,,,0.00,Wunderground v.1.15,2013-07-10 21:30:00,
2013-07-10 17:32:00,86.9,76.8,29.95,WSW,248,0.0,-999.0,72,0.00,,,0.96,Wunderground v.1.15,2013-07-10 21:32:00,
2013-07-10 17:35:00,86.8,77.1,29.95,NE,49,0.0,0.0,73,0.00,,,0.00,Wunderground v.1.15,2013-07-10 21:35:00,
2013-07-10 17:37:00,86.7,77.0,29.95,West,270,0.0,-999.0,73,0.00,,,0.96,Wunderground v.1.15,2013-07-10 21:37:00,
2013-07-10 17:42:00,86.8,77.1,29.95,N/A,-737280,0.0,-999.0,73,0.00,,,0.96,Wunderground v.1.15,2013-07-10 21:42:00,
2013-07-10 17:45:00,86.5,76.4,29.95,SE,128,0.0,0.0,72,0.00,,,0.00,Wunderground v.1.15,2013-07-10 21:45:00,
2013-07-10 17:47:00,86.7,76.2,29.95,NE,45,0.0,-999.0,71,0.00,,,0.96,Wunderground v.1.15,2013-07-10 21:47:00,
2013-07-10 17:52:00,86.3,76.2,29.95,ESE,113,0.0,-999.0,72,0.00,,,0.96,Wunderground v.1.15,2013-07-10 21:52:00,
2013-07-10 17:55:00,85.9,76.6,29.95,SW,234,0.0,0.0,74,0.00,,,0.00,Wunderground v.1.15,2013-07-10 21:55:00,
2013-07-10 17:57:00,86.1,76.8,29.95,SW,225,0.0,-999.0,74,0.00,,,0.96,Wunderground v.1.15,2013-07-10 21:57:00,
2013-07-10 18:00:00,85.8,76.5,29.95,WSW,240,0.0,0.0,74,0.00,,,0.00,Wunderground v.1.15,2013-07-10 22:00:00,
2013-07-10 18:02:00,85.9,76.6,29.95,SW,225,0.0,-999.0,74,0.00,,,0.96,Wunderground v.1.15,2013-07-10 22:02:00,
2013-07-10 18:07:00,85.7,76.5,29.95,WSW,248,0.0,-999.0,74,0.00,,,0.96,Wunderground v.1.15,2013-07-10 22:07:00,
2013-07-10 18:10:00,85.4,77.0,29.95,WSW,242,0.0,0.0,76,0.00,,,0.00,Wunderground v.1.15,2013-07-10 22:10:00,
2013-07-10 18:12:00,85.5,76.7,29.95,N/A,-737280,0.0,-999.0,75,0.00,,,0.96,Wunderground v.1.15,2013-07-10 22:12:00,
2013-07-10 18:17:00,85.2,76.4,29.94,SSW,203,0.0,-999.0,75,0.00,,,0.96,Wunderground v.1.15,2013-07-10 22:17:00,
2013-07-10 18:20:00,85.1,76.7,29.94,SSE,153,0.0,0.0,76,0.00,,,0.00,Wunderground v.1.15,2013-07-10 22:20:00,
2013-07-10 18:22:00,85.1,76.7,29.94,N/A,-737280,0.0,-999.0,76,0.00,,,0.96,Wunderground v.1.15,2013-07-10 22:22:00,
2013-07-10 18:27:00,85.0,77.0,29.94,N/A,-737280,0.0,-999.0,77,0.00,,,0.96,Wunderground v.1.15,2013-07-10 22:27:00,
2013-07-10 18:30:00,85.0,77.4,29.94,SSE,153,0.0,0.0,78,0.00,,,0.00,Wunderground v.1.15,2013-07-10 22:30:00,
2013-07-10 18:32:00,85.0,77.4,29.94,N/A,-737280,0.0,-999.0,78,0.00,,,0.96,Wunderground v.1.15,2013-07-10 22:32:00,
2013-07-10 18:37:00,84.9,77.3,29.94,N/A,-737280,0.0,-999.0,78,0.00,,,0.96,Wunderground v.1.15,2013-07-10 22:37:00,
2013-07-10 18:40:00,84.5,76.5,29.94,SSE,147,0.0,0.0,77,0.00,,,0.00,Wunderground v.1.15,2013-07-10 22:40:00,
2013-07-10 18:42:00,84.7,76.7,29.94,N/A,-737280,0.0,-999.0,77,0.00,,,0.96,Wunderground v.1.15,2013-07-10 22:42:00,
2013-07-10 18:45:00,84.4,76.8,29.94,SE,146,0.0,0.0,78,0.00,,,0.00,Wunderground v.1.15,2013-07-10 22:45:00,
2013-07-10 18:47:00,84.5,76.5,29.94,N/A,-737280,0.0,-999.0,77,0.00,,,0.96,Wunderground v.1.15,2013-07-10 22:47:00,
2013-07-10 18:52:00,84.3,76.7,29.94,N/A,-737280,0.0,-999.0,78,0.00,,,0.96,Wunderground v.1.15,2013-07-10 22:52:00,
2013-07-10 18:55:00,84.2,77.0,29.94,SE,146,0.0,0.0,79,0.00,,,0.00,Wunderground v.1.15,2013-07-10 22:55:00,
2013-07-10 18:57:00,84.2,77.0,29.94,N/A,-737280,0.0,-999.0,79,0.00,,,0.96,Wunderground v.1.15,2013-07-10 22:57:00,
2013-07-10 19:01:00,84.1,76.9,29.94,SE,146,0.0,0.0,79,0.00,,,0.00,Wunderground v.1.15,2013-07-10 23:01:00,
2013-07-10 19:02:00,84.2,77.0,29.94,N/A,-737280,0.0,-999.0,79,0.00,,,0.96,Wunderground v.1.15,2013-07-10 23:02:00,
2013-07-10 19:05:00,84.0,76.8,29.94,SE,146,0.0,0.0,79,0.00,,,0.00,Wunderground v.1.15,2013-07-10 23:05:00,
2013-07-10 19:07:00,84.0,76.8,29.94,N/A,-737280,0.0,-999.0,79,0.00,,,0.96,Wunderground v.1.15,2013-07-10 23:07:00,
2013-07-10 19:10:00,83.8,76.6,29.94,SSE,155,0.0,0.0,79,0.00,,,0.00,Wunderground v.1.15,2013-07-10 23:10:00,
2013-07-10 19:12:00,83.9,76.7,29.94,N/A,-737280,0.0,-999.0,79,0.00,,,0.96,Wunderground v.1.15,2013-07-10 23:12:00,
2013-07-10 19:17:00,83.7,76.5,29.94,N/A,-737280,0.0,-999.0,79,0.00,,,0.96,Wunderground v.1.15,2013-07-10 23:17:00,
2013-07-10 19:20:00,83.5,77.1,29.94,SSE,155,0.0,0.0,81,0.00,,,0.00,Wunderground v.1.15,2013-07-10 23:20:00,
2013-07-10 19:22:00,83.6,76.8,29.94,N/A,-737280,0.0,-999.0,80,0.00,,,0.96,Wunderground v.1.15,2013-07-10 23:22:00,
2013-07-10 19:25:00,83.4,76.6,29.95,SSE,149,0.0,0.0,80,0.00,,,0.00,Wunderground v.1.15,2013-07-10 23:25:00,
2013-07-10 19:27:00,83.5,76.7,29.94,N/A,-737280,0.0,-999.0,80,0.00,,,0.96,Wunderground v.1.15,2013-07-10 23:27:00,
2013-07-10 19:30:00,83.0,76.6,29.95,SSE,149,0.0,0.0,81,0.00,,,0.00,Wunderground v.1.15,2013-07-10 23:30:00,
2013-07-10 19:32:00,83.2,76.4,29.95,N/A,-737280,0.0,-999.0,80,0.00,,,0.96,Wunderground v.1.15,2013-07-10 23:32:00,
2013-07-10 19:37:00,82.9,77.2,29.95,N/A,-737280,0.0,-999.0,83,0.00,,,0.96,Wunderground v.1.15,2013-07-10 23:37:00,
2013-07-10 19:42:00,82.5,76.8,29.96,N/A,-737280,0.0,-999.0,83,0.00,,,0.96,Wunderground v.1.15,2013-07-10 23:42:00,
2013-07-10 19:45:00,81.9,76.9,29.96,SSE,149,0.0,0.0,85,0.00,,,0.00,Wunderground v.1.15,2013-07-10 23:45:00,
2013-07-10 19:47:00,82.1,77.1,29.96,N/A,-737280,0.0,-999.0,85,0.00,,,0.96,Wunderground v.1.15,2013-07-10 23:47:00,
2013-07-10 19:52:00,81.7,77.1,29.96,South,180,0.0,-999.0,86,0.00,,,0.96,Wunderground v.1.15,2013-07-10 23:52:00,
2013-07-10 19:55:00,80.8,76.6,29.96,East,98,0.0,0.0,87,0.00,,,0.00,Wunderground v.1.15,2013-07-10 23:55:00,
2013-07-10 19:57:00,81.0,76.4,29.96,N/A,-737280,0.0,-999.0,86,0.00,,,0.96,Wunderground v.1.15,2013-07-10 23:57:00,
2013-07-10 20:02:00,80.5,76.3,29.96,ESE,113,0.0,-999.0,87,0.00,,,0.96,Wunderground v.1.15,2013-07-11 00:02:00,
2013-07-10 20:05:00,80.1,76.6,29.96,SW,221,0.0,0.0,89,0.00,,,0.00,Wunderground v.1.15,2013-07-11 00:05:00,
2013-07-10 20:07:00,80.2,76.3,29.96,N/A,-737280,0.0,-999.0,88,0.00,,,0.96,Wunderground v.1.15,2013-07-11 00:07:00,
2013-07-10 20:10:00,79.8,76.3,29.96,SW,221,0.0,0.0,89,0.00,,,0.00,Wunderground v.1.15,2013-07-11 00:10:00,
2013-07-10 20:12:00,79.9,76.4,29.96,N/A,-737280,0.0,-999.0,89,0.00,,,0.96,Wunderground v.1.15,2013-07-11 00:12:00,
2013-07-10 20:17:00,79.6,76.1,29.96,N/A,-737280,0.0,-999.0,89,0.00,,,0.96,Wunderground v.1.15,2013-07-11 00:17:00,
2013-07-10 20:20:00,79.2,75.7,29.96,SSW,193,0.0,0.0,89,0.00,,,0.00,Wunderground v.1.15,2013-07-11 00:20:00,
2013-07-10 20:22:00,79.4,75.9,29.96,N/A,-737280,0.0,-999.0,89,0.00,,,0.96,Wunderground v.1.15,2013-07-11 00:22:00,
2013-07-10 20:25:00,79.0,75.5,29.97,SSW,193,0.0,0.0,89,0.00,,,0.00,Wunderground v.1.15,2013-07-11 00:25:00,
2013-07-10 20:27:00,79.1,75.6,29.96,N/A,-737280,0.0,-999.0,89,0.00,,,0.96,Wunderground v.1.15,2013-07-11 00:27:00,
2013-07-10 20:30:00,78.8,75.3,29.97,SSW,193,0.0,0.0,89,0.00,,,0.00,Wunderground v.1.15,2013-07-11 00:30:00,
2013-07-10 20:32:00,78.9,75.7,29.97,N/A,-737280,0.0,-999.0,90,0.00,,,0.96,Wunderground v.1.15,2013-07-11 00:32:00,
2013-07-10 20:35:00,78.6,75.1,29.96,SSW,193,0.0,0.0,89,0.00,,,0.00,Wunderground v.1.15,2013-07-11 00:35:00,
2013-07-10 20:37:00,78.7,75.2,29.96,N/A,-737280,0.0,-999.0,89,0.00,,,0.96,Wunderground v.1.15,2013-07-11 00:37:00,
2013-07-10 20:40:00,78.4,74.5,29.96,South,171,0.0,0.0,88,0.00,,,0.00,Wunderground v.1.15,2013-07-11 00:40:00,
2013-07-10 20:42:00,78.5,75.0,29.96,South,180,0.0,-999.0,89,0.00,,,0.96,Wunderground v.1.15,2013-07-11 00:42:00,
2013-07-10 20:45:00,78.2,74.4,29.96,South,171,0.0,0.0,88,0.00,,,0.00,Wunderground v.1.15,2013-07-11 00:45:00,
2013-07-10 20:47:00,78.3,74.8,29.96,South,180,0.0,-999.0,89,0.00,,,0.96,Wunderground v.1.15,2013-07-11 00:47:00,
2013-07-10 20:52:00,78.2,74.4,29.96,N/A,-737280,0.0,-999.0,88,0.00,,,0.96,Wunderground v.1.15,2013-07-11 00:52:00,
2013-07-10 20:55:00,78.0,74.2,29.97,South,171,0.0,0.0,88,0.00,,,0.00,Wunderground v.1.15,2013-07-11 00:55:00,
2013-07-10 20:57:00,78.1,74.3,29.97,N/A,-737280,0.0,-999.0,88,0.00,,,0.96,Wunderground v.1.15,2013-07-11 00:57:00,
2013-07-10 21:00:00,77.8,74.3,29.98,SW,232,0.0,0.0,89,0.00,,,0.00,Wunderground v.1.15,2013-07-11 01:00:00,
2013-07-10 21:02:00,78.0,74.5,29.97,SW,225,0.0,-999.0,89,0.00,,,0.96,Wunderground v.1.15,2013-07-11 01:02:00,
2013-07-10 21:07:00,77.6,73.8,29.98,South,180,1.0,-999.0,88,0.00,,,0.96,Wunderground v.1.15,2013-07-11 01:07:00,
2013-07-10 21:10:00,76.7,72.9,29.98,East,92,1.0,1.0,88,2.00,,,0.09,Wunderground v.1.15,2013-07-11 01:10:00,
2013-07-10 21:12:00,77.3,73.1,29.98,South,180,1.0,-999.0,87,0.02,,,0.96,Wunderground v.1.15,2013-07-11 01:12:00,
2013-07-10 21:15:00,75.9,72.8,29.99,SSW,203,1.0,5.0,90,1.85,,,0.22,Wunderground v.1.15,2013-07-11 01:15:00,
2013-07-10 21:17:00,76.4,72.9,29.98,East,90,1.0,-999.0,89,0.14,,,0.96,Wunderground v.1.15,2013-07-11 01:17:00,
2013-07-10 21:22:00,75.2,72.4,29.99,SSW,203,2.0,-999.0,91,0.29,,,0.96,Wunderground v.1.15,2013-07-11 01:22:00,
2013-07-10 21:25:00,74.0,71.5,30.00,SSW,194,2.0,2.0,92,2.69,,,0.50,Wunderground v.1.15,2013-07-11 01:25:00,
2013-07-10 21:27:00,74.3,71.8,30.00,SW,225,1.0,-999.0,92,0.40,,,0.96,Wunderground v.1.15,2013-07-11 01:27:00,
2013-07-10 21:30:00,73.4,71.3,30.01,SSW,194,1.0,2.0,93,1.56,,,0.73,Wunderground v.1.15,2013-07-11 01:30:00,
2013-07-10 21:32:00,73.7,71.5,30.00,West,270,1.0,-999.0,93,0.63,,,0.96,Wunderground v.1.15,2013-07-11 01:32:00,
2013-07-10 21:35:00,73.0,71.2,30.01,South,184,1.0,1.0,94,0.20,,,0.76,Wunderground v.1.15,2013-07-11 01:35:00,
2013-07-10 21:37:00,73.2,71.4,30.01,South,180,1.0,-999.0,94,0.76,,,0.96,Wunderground v.1.15,2013-07-11 01:37:00,
2013-07-10 21:40:00,72.7,70.9,30.01,SW,222,0.0,1.0,94,0.07,,,0.76,Wunderground v.1.15,2013-07-11 01:40:00,
2013-07-10 21:42:00,72.8,71.0,30.01,South,180,0.0,-999.0,94,0.76,,,0.96,Wunderground v.1.15,2013-07-11 01:42:00,
2013-07-10 21:45:00,72.6,71.1,30.01,West,271,0.0,0.0,95,0.05,,,0.76,Wunderground v.1.15,2013-07-11 01:45:00,
2013-07-10 21:47:00,72.6,71.1,30.01,SSW,203,0.0,-999.0,95,0.76,,,0.96,Wunderground v.1.15,2013-07-11 01:47:00,
2013-07-10 21:50:00,72.5,71.0,30.01,SSE,167,0.0,1.0,95,0.00,,,0.76,Wunderground v.1.15,2013-07-11 01:50:00,
2013-07-10 21:52:00,72.5,71.0,30.01,SSW,203,0.0,-999.0,95,0.76,,,0.96,Wunderground v.1.15,2013-07-11 01:52:00,
2013-07-10 21:55:00,72.4,70.9,30.01,SSE,167,0.0,0.0,95,0.00,,,0.77,Wunderground v.1.15,2013-07-11 01:55:00,
2013-07-10 21:57:00,72.4,70.9,30.01,SW,225,0.0,-999.0,95,0.77,,,0.96,Wunderground v.1.15,2013-07-11 01:57:00,
2013-07-10 22:00:00,72.4,71.2,30.01,West,265,0.0,0.0,96,0.00,,,0.77,Wunderground v.1.15,2013-07-11 02:00:00,
2013-07-10 22:02:00,72.4,70.9,30.01,SSE,158,0.0,-999.0,95,0.77,,,0.96,Wunderground v.1.15,2013-07-11 02:02:00,
2013-07-10 22:05:00,72.3,71.1,30.00,WSW,257,0.0,0.0,96,0.06,,,0.78,Wunderground v.1.15,2013-07-11 02:05:00,
2013-07-10 22:07:00,72.4,71.2,30.01,West,270,0.0,-999.0,96,0.78,,,0.96,Wunderground v.1.15,2013-07-11 02:07:00,
2013-07-10 22:10:00,72.4,71.2,30.00,WSW,252,0.0,0.0,96,0.12,,,0.79,Wunderground v.1.15,2013-07-11 02:10:00,
2013-07-10 22:12:00,72.4,71.2,30.00,West,270,0.0,-999.0,96,0.77,,,0.96,Wunderground v.1.15,2013-07-11 02:12:00,
2013-07-10 22:15:00,72.3,71.1,30.00,SW,219,0.0,2.0,96,0.09,,,0.80,Wunderground v.1.15,2013-07-11 02:15:00,
2013-07-10 22:17:00,72.3,71.1,30.00,SW,225,0.0,-999.0,96,0.65,,,0.96,Wunderground v.1.15,2013-07-11 02:17:00,
2013-07-10 22:20:00,72.3,71.1,30.00,SW,219,0.0,0.0,96,0.27,,,0.83,Wunderground v.1.15,2013-07-11 02:20:00,
2013-07-10 22:22:00,72.3,71.1,30.00,SW,225,0.0,-999.0,96,0.52,,,0.96,Wunderground v.1.15,2013-07-11 02:22:00,
2013-07-10 22:27:00,72.3,71.1,30.00,SW,225,0.0,-999.0,96,0.44,,,0.96,Wunderground v.1.15,2013-07-11 02:27:00,
2013-07-10 22:30:00,72.3,71.1,30.00,WSW,242,0.0,0.0,96,0.22,,,0.87,Wunderground v.1.15,2013-07-11 02:30:00,
2013-07-10 22:32:00,72.3,71.1,30.00,WSW,248,0.0,-999.0,96,0.23,,,0.96,Wunderground v.1.15,2013-07-11 02:32:00,
2013-07-10 22:35:00,72.3,71.1,29.99,WSW,242,0.0,0.0,96,0.28,,,0.89,Wunderground v.1.15,2013-07-11 02:35:00,
2013-07-10 22:37:00,72.3,71.1,30.00,N/A,-737280,0.0,-999.0,96,0.12,,,0.96,Wunderground v.1.15,2013-07-11 02:37:00,
2013-07-10 22:40:00,72.3,71.1,29.99,WSW,242,0.0,0.0,96,0.17,,,0.90,Wunderground v.1.15,2013-07-11 02:40:00,
2013-07-10 22:42:00,72.3,71.1,29.99,N/A,-737280,0.0,-999.0,96,0.13,,,0.96,Wunderground v.1.15,2013-07-11 02:42:00,
2013-07-10 22:45:00,72.3,71.1,29.99,WSW,242,0.0,0.0,96,0.17,,,0.92,Wunderground v.1.15,2013-07-11 02:45:00,
2013-07-10 22:47:00,72.4,71.2,29.99,N/A,-737280,0.0,-999.0,96,0.15,,,0.96,Wunderground v.1.15,2013-07-11 02:47:00,
2013-07-10 22:50:00,72.4,71.2,29.98,WSW,242,0.0,0.0,96,0.17,,,0.93,Wunderground v.1.15,2013-07-11 02:50:00,
2013-07-10 22:52:00,72.4,71.2,29.98,N/A,-737280,0.0,-999.0,96,0.16,,,0.96,Wunderground v.1.15,2013-07-11 02:52:00,
2013-07-10 22:55:00,72.4,71.5,29.98,WSW,242,0.0,0.0,97,0.11,,,0.94,Wunderground v.1.15,2013-07-11 02:55:00,
2013-07-10 22:57:00,72.4,71.5,29.98,N/A,-737280,0.0,-999.0,97,0.16,,,0.96,Wunderground v.1.15,2013-07-11 02:57:00,
2013-07-10 23:00:00,72.5,71.6,29.98,WSW,242,0.0,0.0,97,0.09,,,0.94,Wunderground v.1.15,2013-07-11 03:00:00,
2013-07-10 23:02:00,72.4,71.5,29.98,N/A,-737280,0.0,-999.0,97,0.17,,,0.96,Wunderground v.1.15,2013-07-11 03:02:00,
2013-07-10 23:05:00,72.4,71.5,29.98,WSW,242,0.0,0.0,97,0.07,,,0.95,Wunderground v.1.15,2013-07-11 03:05:00,
2013-07-10 23:07:00,72.4,71.5,29.98,N/A,-737280,0.0,-999.0,97,0.17,,,0.96,Wunderground v.1.15,2013-07-11 03:07:00,
2013-07-10 23:10:00,72.4,71.5,29.98,WSW,242,0.0,0.0,97,0.07,,,0.95,Wunderground v.1.15,2013-07-11 03:10:00,
2013-07-10 23:12:00,72.4,71.5,29.98,N/A,-737280,0.0,-999.0,97,0.16,,,0.96,Wunderground v.1.15,2013-07-11 03:12:00,
2013-07-10 23:15:00,72.4,71.5,29.98,WSW,242,0.0,0.0,97,0.05,,,0.95,Wunderground v.1.15,2013-07-11 03:15:00,
2013-07-10 23:17:00,72.4,71.5,29.98,N/A,-737280,0.0,-999.0,97,0.16,,,0.96,Wunderground v.1.15,2013-07-11 03:17:00,
2013-07-10 23:22:00,72.4,71.5,29.98,N/A,-737280,0.0,-999.0,97,0.14,,,0.96,Wunderground v.1.15,2013-07-11 03:22:00,
2013-07-10 23:25:00,72.4,71.5,29.97,WSW,242,0.0,0.0,97,0.00,,,0.95,Wunderground v.1.15,2013-07-11 03:25:00,
2013-07-10 23:27:00,72.4,71.5,29.98,N/A,-737280,0.0,-999.0,97,0.11,,,0.96,Wunderground v.1.15,2013-07-11 03:27:00,
2013-07-10 23:32:00,72.4,71.5,29.97,N/A,-737280,0.0,-999.0,97,0.09,,,0.96,Wunderground v.1.15,2013-07-11 03:32:00,
2013-07-10 23:35:00,72.4,71.5,29.97,WSW,242,0.0,0.0,97,0.00,,,0.96,Wunderground v.1.15,2013-07-11 03:35:00,
2013-07-10 23:37:00,72.4,71.5,29.97,N/A,-737280,0.0,-999.0,97,0.08,,,0.96,Wunderground v.1.15,2013-07-11 03:37:00,
2013-07-10 23:41:00,72.4,71.5,29.97,WSW,242,0.0,0.0,97,0.00,,,0.96,Wunderground v.1.15,2013-07-11 03:41:00,
2013-07-10 23:42:00,72.4,71.5,29.97,N/A,-737280,0.0,-999.0,97,0.07,,,0.96,Wunderground v.1.15,2013-07-11 03:42:00,
2013-07-10 23:47:00,72.4,71.5,29.97,N/A,-737280,0.0,-999.0,97,0.05,,,0.96,Wunderground v.1.15,2013-07-11 03:47:00,
2013-07-10 23:50:00,72.3,71.4,29.97,WSW,242,0.0,0.0,97,0.00,,,0.96,Wunderground v.1.15,2013-07-11 03:50:00,
2013-07-10 23:52:00,72.3,71.4,29.97,N/A,-737280,0.0,-999.0,97,0.04,,,0.96,Wunderground v.1.15,2013-07-11 03:52:00,
2013-07-10 23:57:00,72.3,71.4,29.97,N/A,-737280,0.0,-999.0,97,0.03,,,0.96,Wunderground v.1.15,2013-07-11 03:57:00,